DAL1671 KLAS-KSLC

Flight info

Callsign DAL1671
Flight time 0h 57m
Altitude 32000
Route RATPK3 FRNCK MLF PITTT2
Aircraft B738/M-SDE2E3FGHIRWXY/LB1

Departure

Time 2026-05-04 19:02
Airport Harry Reid International Airport (KLAS)

Arrival

Time 2026-05-04 19:59
Airport Salt Lake City International Airport (KSLC)
Time Latitude Longitude Altitude Speed Heading
2026-05-04 18:38 36.08041 -115.13875 2090 ft 0 kts 343°
2026-05-04 18:52 36.08041 -115.13874 2090 ft 1 kts 343°
2026-05-04 18:52 36.08026 -115.13869 2089 ft 3 kts 343°
2026-05-04 18:53 36.08007 -115.13862 2089 ft 3 kts 344°
2026-05-04 18:53 36.07988 -115.13857 2089 ft 3 kts 356°
2026-05-04 18:53 36.07969 -115.13858 2089 ft 3 kts 19°
2026-05-04 18:53 36.07951 -115.13868 2090 ft 3 kts 39°
2026-05-04 18:54 36.07943 -115.13878 2090 ft 2 kts 44°
2026-05-04 18:54 36.07941 -115.13880 2090 ft 2 kts 44°
2026-05-04 18:57 36.07963 -115.13853 2090 ft 5 kts 44°
2026-05-04 18:57 36.08006 -115.13797 2089 ft 13 kts 56°
2026-05-04 18:57 36.07989 -115.13706 2089 ft 14 kts 130°
2026-05-04 18:57 36.07921 -115.13622 2088 ft 13 kts 135°
2026-05-04 18:58 36.07860 -115.13547 2085 ft 11 kts 135°
2026-05-04 18:58 36.07828 -115.13478 2084 ft 8 kts 97°
2026-05-04 18:58 36.07824 -115.13407 2082 ft 9 kts 105°
2026-05-04 18:58 36.07776 -115.13364 2080 ft 8 kts 151°
2026-05-04 18:59 36.07754 -115.13303 2076 ft 9 kts 94°
2026-05-04 18:59 36.07753 -115.13217 2072 ft 12 kts 91°
2026-05-04 18:59 36.07753 -115.13088 2067 ft 17 kts 89°
2026-05-04 18:59 36.07754 -115.12920 2062 ft 22 kts 89°
2026-05-04 19:00 36.07754 -115.12738 2053 ft 21 kts 90°
2026-05-04 19:00 36.07754 -115.12564 2048 ft 21 kts 90°
2026-05-04 19:00 36.07754 -115.12405 2045 ft 19 kts 90°
2026-05-04 19:00 36.07752 -115.12281 2042 ft 8 kts 98°
2026-05-04 19:01 36.07735 -115.12243 2051 ft 8 kts 141°
2026-05-04 19:01 36.07672 -115.12233 2046 ft 7 kts 178°
2026-05-04 19:01 36.07641 -115.12264 2047 ft 6 kts 248°
2026-05-04 19:01 36.07640 -115.12318 2048 ft 13 kts 270°
2026-05-04 19:02 36.07640 -115.12835 2058 ft 87 kts 270°
2026-05-04 19:02 36.07639 -115.13455 2077 ft 126 kts 270°
2026-05-04 19:02 36.07644 -115.14744 2191 ft 166 kts 263°
2026-05-04 19:02 36.07628 -115.16181 2901 ft 171 kts 265°
2026-05-04 19:03 36.07626 -115.17673 3581 ft 174 kts 268°
2026-05-04 19:03 36.07639 -115.19214 4267 ft 187 kts 266°
2026-05-04 19:03 36.07636 -115.20880 4677 ft 203 kts 266°
2026-05-04 19:03 36.07631 -115.22665 5187 ft 211 kts 265°
2026-05-04 19:04 36.07622 -115.24532 5643 ft 227 kts 264°
2026-05-04 19:04 36.07750 -115.26567 6118 ft 248 kts 281°
2026-05-04 19:04 36.08663 -115.28452 6768 ft 269 kts 315°
2026-05-04 19:04 36.10353 -115.29544 7434 ft 286 kts 344°
2026-05-04 19:05 36.12292 -115.30016 8386 ft 281 kts 348°
2026-05-04 19:05 36.14234 -115.30072 9172 ft 289 kts 11°
2026-05-04 19:05 36.16108 -115.29068 9734 ft 302 kts 38°
2026-05-04 19:05 36.17494 -115.27096 10312 ft 308 kts 65°
2026-05-04 19:06 36.18329 -115.24664 11081 ft 307 kts 76°
2026-05-04 19:06 36.18843 -115.22070 11782 ft 312 kts 80°
2026-05-04 19:06 36.19432 -115.19472 12638 ft 314 kts 77°
2026-05-04 19:06 36.19718 -115.16816 13455 ft 312 kts 94°
2026-05-04 19:07 36.19689 -115.14103 14188 ft 317 kts 95°
2026-05-04 19:07 36.19658 -115.11341 14811 ft 326 kts 95°
2026-05-04 19:07 36.19636 -115.08536 15411 ft 334 kts 95°
2026-05-04 19:07 36.19625 -115.05638 16086 ft 340 kts 95°
2026-05-04 19:08 36.19619 -115.02677 16751 ft 348 kts 94°
2026-05-04 19:08 36.19618 -114.99651 17382 ft 356 kts 95°
2026-05-04 19:08 36.19617 -114.96549 18015 ft 363 kts 95°
2026-05-04 19:08 36.19616 -114.93396 18625 ft 369 kts 95°
2026-05-04 19:09 36.19657 -114.90198 19233 ft 376 kts 87°
2026-05-04 19:09 36.20408 -114.87061 19817 ft 387 kts 62°
2026-05-04 19:09 36.21964 -114.84341 20443 ft 390 kts 49°
2026-05-04 19:09 36.23716 -114.81744 21021 ft 396 kts 48°
2026-05-04 19:10 36.25517 -114.79126 21601 ft 401 kts 47°
2026-05-04 19:10 36.27330 -114.76473 22204 ft 406 kts 48°
2026-05-04 19:10 36.29153 -114.73769 22813 ft 410 kts 48°
2026-05-04 19:10 36.30984 -114.71023 23413 ft 415 kts 48°
2026-05-04 19:11 36.32808 -114.68278 23852 ft 421 kts 48°
2026-05-04 19:11 36.34699 -114.65418 24291 ft 426 kts 49°
2026-05-04 19:11 36.36584 -114.62590 24659 ft 433 kts 46°
2026-05-04 19:11 36.38794 -114.60049 25093 ft 433 kts 34°
2026-05-04 19:12 36.41213 -114.57796 25560 ft 436 kts 31°
2026-05-04 19:12 36.46191 -114.53311 26368 ft 448 kts 32°
2026-05-04 19:12 36.48691 -114.50952 26778 ft 454 kts 32°
2026-05-04 19:13 36.51218 -114.48574 27255 ft 457 kts 33°
2026-05-04 19:13 36.53719 -114.46203 27807 ft 458 kts 33°
2026-05-04 19:13 36.56315 -114.43891 28205 ft 461 kts 28°
2026-05-04 19:13 36.59029 -114.41731 28556 ft 465 kts 26°
2026-05-04 19:14 36.61809 -114.39630 28938 ft 470 kts 25°
2026-05-04 19:14 36.64629 -114.37528 29291 ft 475 kts 25°
2026-05-04 19:14 36.67476 -114.35393 29671 ft 479 kts 25°
2026-05-04 19:14 36.70338 -114.33220 30022 ft 484 kts 25°
2026-05-04 19:15 36.73212 -114.31014 30345 ft 488 kts 26°
2026-05-04 19:15 36.76107 -114.28775 30668 ft 491 kts 25°
2026-05-04 19:15 36.79024 -114.26507 30990 ft 495 kts 25°
2026-05-04 19:15 36.81959 -114.24219 31257 ft 500 kts 25°
2026-05-04 19:16 36.84925 -114.21906 31498 ft 505 kts 25°
2026-05-04 19:16 36.87921 -114.19567 31769 ft 509 kts 25°
2026-05-04 19:16 36.90938 -114.17210 31802 ft 513 kts 25°
2026-05-04 19:17 36.96974 -114.12482 31789 ft 508 kts 25°
2026-05-04 19:17 37.02936 -114.07805 31805 ft 507 kts 25°
2026-05-04 19:18 37.08937 -114.03099 31799 ft 509 kts 25°
2026-05-04 19:18 37.14865 -113.98434 31799 ft 506 kts 25°
2026-05-04 19:19 37.20786 -113.93770 31801 ft 503 kts 25°
2026-05-04 19:19 37.26695 -113.89112 31801 ft 500 kts 25°
2026-05-04 19:20 37.32548 -113.84480 31842 ft 498 kts 25°
2026-05-04 19:20 37.38398 -113.79844 31641 ft 494 kts 25°
2026-05-04 19:20 37.41285 -113.77551 31348 ft 488 kts 25°
2026-05-04 19:21 37.44144 -113.75276 31147 ft 484 kts 25°
2026-05-04 19:21 37.46990 -113.73017 30900 ft 484 kts 25°
2026-05-04 19:21 37.49847 -113.70750 30784 ft 489 kts 25°
2026-05-04 19:22 37.55712 -113.66093 30826 ft 507 kts 25°
2026-05-04 19:22 37.61775 -113.61252 30806 ft 524 kts 26°
2026-05-04 19:23 37.67974 -113.56289 30805 ft 537 kts 26°
2026-05-04 19:23 37.74347 -113.51189 30788 ft 547 kts 26°
2026-05-04 19:24 37.80795 -113.46022 30758 ft 547 kts 27°
2026-05-04 19:24 37.87217 -113.40857 30821 ft 544 kts 27°
2026-05-04 19:25 37.93590 -113.35723 30782 ft 541 kts 27°
2026-05-04 19:25 37.99889 -113.30641 30751 ft 538 kts 27°
2026-05-04 19:26 38.06199 -113.25541 30759 ft 537 kts 27°
2026-05-04 19:26 38.12493 -113.20443 30792 ft 536 kts 27°
2026-05-04 19:27 38.18765 -113.15350 30819 ft 534 kts 27°
2026-05-04 19:27 38.25023 -113.10258 30847 ft 533 kts 27°
2026-05-04 19:28 38.31259 -113.05173 30890 ft 531 kts 27°
2026-05-04 19:28 38.37528 -113.00231 30898 ft 525 kts 20°
2026-05-04 19:29 38.44093 -112.96659 30912 ft 518 kts 14°
2026-05-04 19:29 38.50825 -112.93340 30899 ft 519 kts 15°
2026-05-04 19:30 38.57527 -112.89872 30865 ft 521 kts 16°
2026-05-04 19:30 38.64227 -112.86286 30840 ft 520 kts 17°
2026-05-04 19:31 38.70862 -112.82715 30757 ft 519 kts 17°
2026-05-04 19:31 38.77517 -112.79141 30755 ft 518 kts 17°
2026-05-04 19:32 38.84157 -112.75574 30755 ft 517 kts 16°
2026-05-04 19:32 38.90765 -112.72009 30750 ft 510 kts 17°
2026-05-04 19:32 38.93975 -112.70264 30741 ft 491 kts 17°
2026-05-04 19:33 38.97068 -112.68580 30742 ft 474 kts 17°
2026-05-04 19:33 39.00046 -112.66959 30734 ft 458 kts 16°
2026-05-04 19:33 39.02940 -112.65388 30737 ft 445 kts 16°
2026-05-04 19:34 39.08614 -112.62327 30722 ft 448 kts 16°
2026-05-04 19:34 39.11505 -112.60767 30403 ft 450 kts 16°
2026-05-04 19:34 39.14376 -112.59206 30051 ft 445 kts 17°
2026-05-04 19:34 39.17218 -112.57657 29648 ft 442 kts 17°
2026-05-04 19:35 39.20035 -112.56120 29210 ft 438 kts 17°
2026-05-04 19:35 39.22830 -112.54595 28798 ft 433 kts 17°
2026-05-04 19:35 39.25590 -112.53088 28389 ft 429 kts 17°
2026-05-04 19:35 39.28322 -112.51596 27995 ft 425 kts 17°
2026-05-04 19:36 39.31044 -112.50161 27593 ft 418 kts 13°
2026-05-04 19:36 39.33790 -112.49079 27301 ft 409 kts
2026-05-04 19:36 39.36538 -112.48191 26899 ft 405 kts
2026-05-04 19:36 39.39267 -112.47368 26506 ft 401 kts
2026-05-04 19:37 39.41944 -112.46558 26128 ft 398 kts
2026-05-04 19:37 39.44631 -112.45723 25742 ft 395 kts
2026-05-04 19:37 39.47294 -112.44875 25366 ft 393 kts
2026-05-04 19:37 39.49932 -112.44016 24996 ft 390 kts
2026-05-04 19:38 39.52556 -112.43152 24617 ft 387 kts 10°
2026-05-04 19:38 39.55157 -112.42289 24258 ft 385 kts 12°
2026-05-04 19:38 39.57740 -112.41427 23890 ft 382 kts 12°
2026-05-04 19:38 39.60307 -112.40572 23519 ft 379 kts 12°
2026-05-04 19:39 39.62859 -112.39721 23105 ft 377 kts 13°
2026-05-04 19:39 39.65388 -112.38878 22677 ft 374 kts 13°
2026-05-04 19:39 39.67900 -112.38038 22289 ft 371 kts 13°
2026-05-04 19:39 39.70391 -112.37206 21925 ft 367 kts 13°
2026-05-04 19:40 39.72860 -112.36380 21547 ft 364 kts 13°
2026-05-04 19:40 39.75307 -112.35562 21187 ft 361 kts 13°
2026-05-04 19:40 39.77733 -112.34749 20825 ft 359 kts 14°
2026-05-04 19:40 39.80146 -112.33941 20466 ft 356 kts 14°
2026-05-04 19:41 39.82508 -112.33149 20103 ft 354 kts 15°
2026-05-04 19:41 39.84887 -112.32349 19771 ft 352 kts 15°
2026-05-04 19:41 39.87251 -112.31555 19417 ft 350 kts 15°
2026-05-04 19:41 39.89609 -112.30761 19051 ft 350 kts 15°
2026-05-04 19:42 39.91961 -112.29971 18707 ft 348 kts 16°
2026-05-04 19:42 39.94310 -112.29181 18346 ft 347 kts 15°
2026-05-04 19:42 39.96648 -112.28391 17976 ft 346 kts 15°
2026-05-04 19:42 39.98978 -112.27606 17580 ft 344 kts 16°
2026-05-04 19:43 40.01289 -112.26827 17219 ft 341 kts 15°
2026-05-04 19:43 40.03549 -112.26062 16860 ft 338 kts 16°
2026-05-04 19:43 40.05812 -112.25300 16618 ft 332 kts 17°
2026-05-04 19:43 40.08029 -112.24550 16437 ft 326 kts 16°
2026-05-04 19:44 40.10213 -112.23811 16251 ft 322 kts 17°
2026-05-04 19:44 40.12376 -112.23074 16136 ft 320 kts 17°
2026-05-04 19:44 40.14555 -112.22336 16014 ft 327 kts 17°
2026-05-04 19:44 40.16781 -112.21580 15835 ft 332 kts 16°
2026-05-04 19:45 40.19015 -112.20822 15648 ft 331 kts 17°
2026-05-04 19:45 40.21237 -112.20070 15460 ft 329 kts 17°
2026-05-04 19:45 40.23446 -112.19320 15267 ft 327 kts 15°
2026-05-04 19:45 40.25647 -112.18571 15084 ft 325 kts 15°
2026-05-04 19:46 40.27805 -112.17835 14900 ft 323 kts 15°
2026-05-04 19:46 40.30006 -112.17085 14717 ft 322 kts 15°
2026-05-04 19:46 40.32141 -112.16358 14541 ft 321 kts 15°
2026-05-04 19:46 40.34299 -112.15623 14371 ft 319 kts 15°
2026-05-04 19:47 40.36446 -112.14890 14198 ft 318 kts 15°
2026-05-04 19:47 40.38582 -112.14162 14029 ft 317 kts 15°
2026-05-04 19:47 40.40708 -112.13436 13858 ft 315 kts 15°
2026-05-04 19:47 40.42835 -112.12711 13685 ft 314 kts 15°
2026-05-04 19:48 40.44949 -112.11989 13497 ft 313 kts 14°
2026-05-04 19:48 40.47053 -112.11268 13312 ft 312 kts 14°
2026-05-04 19:48 40.48440 -112.10794 13201 ft 311 kts 14°
2026-05-04 19:48 40.50530 -112.10083 13021 ft 310 kts 14°
2026-05-04 19:49 40.52616 -112.09376 12773 ft 309 kts 14°
2026-05-04 19:49 40.55356 -112.08448 12437 ft 303 kts 13°
2026-05-04 19:49 40.57427 -112.08057 12175 ft 299 kts
2026-05-04 19:49 40.58797 -112.07988 12014 ft 296 kts
2026-05-04 19:50 40.60843 -112.07911 11760 ft 292 kts
2026-05-04 19:50 40.62890 -112.07811 11500 ft 289 kts
2026-05-04 19:50 40.64856 -112.07872 11260 ft 285 kts 354°
2026-05-04 19:50 40.66823 -112.08133 11019 ft 282 kts 352°
2026-05-04 19:51 40.68762 -112.08406 10816 ft 278 kts 352°
2026-05-04 19:51 40.70665 -112.08650 10833 ft 271 kts 352°
2026-05-04 19:51 40.72539 -112.08877 10843 ft 271 kts 353°
2026-05-04 19:51 40.74424 -112.09101 10839 ft 272 kts 353°
2026-05-04 19:52 40.76321 -112.09325 10825 ft 277 kts 354°
2026-05-04 19:52 40.78224 -112.09551 10802 ft 269 kts 354°
2026-05-04 19:52 40.80045 -112.09767 10746 ft 257 kts 353°
2026-05-04 19:52 40.81809 -112.09976 10681 ft 252 kts 353°
2026-05-04 19:53 40.83562 -112.10200 10421 ft 253 kts 351°
2026-05-04 19:53 40.85285 -112.10459 10184 ft 252 kts 352°
2026-05-04 19:53 40.87045 -112.10449 9937 ft 253 kts 358°
2026-05-04 19:53 40.88796 -112.10669 9691 ft 248 kts 350°
2026-05-04 19:54 40.90482 -112.10938 9411 ft 240 kts 352°
2026-05-04 19:54 40.92114 -112.11156 9134 ft 231 kts 352°
2026-05-04 19:54 40.93704 -112.11332 8870 ft 228 kts 354°
2026-05-04 19:54 40.95253 -112.10959 8581 ft 229 kts 27°
2026-05-04 19:55 40.96447 -112.09612 8281 ft 228 kts 54°
2026-05-04 19:55 40.97096 -112.07722 7956 ft 225 kts 78°
2026-05-04 19:55 40.97197 -112.05706 7597 ft 222 kts 99°
2026-05-04 19:55 40.96695 -112.03808 7258 ft 217 kts 123°
2026-05-04 19:56 40.95700 -112.02363 6887 ft 210 kts 146°
2026-05-04 19:56 40.94413 -112.01559 6568 ft 203 kts 168°
2026-05-04 19:56 40.93030 -112.01313 6288 ft 200 kts 176°
2026-05-04 19:56 40.91637 -112.01161 6002 ft 198 kts 178°
2026-05-04 19:57 40.90325 -112.01036 6032 ft 186 kts 179°
2026-05-04 19:57 40.89053 -112.00892 5903 ft 176 kts 177°
2026-05-04 19:57 40.87870 -112.00754 5637 ft 167 kts 176°
2026-05-04 19:57 40.86750 -112.00623 5427 ft 159 kts 176°
2026-05-04 19:58 40.85662 -112.00499 5250 ft 151 kts 180°
2026-05-04 19:58 40.84614 -112.00358 5042 ft 148 kts 178°
2026-05-04 19:58 40.83576 -112.00258 4825 ft 150 kts 177°
2026-05-04 19:58 40.82548 -112.00135 4622 ft 147 kts 174°
2026-05-04 19:59 40.81525 -112.00011 4402 ft 148 kts 180°
2026-05-04 19:59 40.80526 -111.99899 4245 ft 148 kts 177°
2026-05-04 19:59 40.79586 -111.99792 4228 ft 109 kts 175°
2026-05-04 19:59 40.79043 -111.99729 4232 ft 47 kts 175°
2026-05-04 20:00 40.78843 -111.99665 4232 ft 23 kts 155°
2026-05-04 20:00 40.78761 -111.99592 4232 ft 13 kts 137°
2026-05-04 20:00 40.78709 -111.99528 4231 ft 10 kts 136°
2026-05-04 20:00 40.78651 -111.99453 4230 ft 13 kts 118°
2026-05-04 20:01 40.78647 -111.99344 4230 ft 13 kts 85°
2026-05-04 20:01 40.78656 -111.99216 4230 ft 14 kts 84°
2026-05-04 20:01 40.78663 -111.99118 4230 ft 9 kts 84°
2026-05-04 20:01 40.78659 -111.99068 4230 ft 4 kts 144°
2026-05-04 20:02 40.78648 -111.99067 4228 ft 3 kts 173°
2026-05-04 20:02 40.78628 -111.99064 4230 ft 3 kts 174°
2026-05-04 20:02 40.78608 -111.99062 4230 ft 3 kts 176°
2026-05-04 20:02 40.78595 -111.99061 4230 ft 1 kts 176°
2026-05-04 20:03 40.78591 -111.99060 4230 ft 0 kts 175°